FENTRESS NALF, VA

8:31 AM EDT on July 28, 2017 (GMT -0400)
Fentress Naval Air Landing Field

Weather History for KNFE - January, 2014

Change the Weather History Date:

Saturday, January 18, 2014

  Actual Average (KNTU) Record (KNTU)
Temperature  
Mean Temperature 40 °F -  
Max Temperature 50 °F 44 °F 69 °F (2006)
Min Temperature 30 °F 29 °F 17 °F (1997)
Degree Days  
Heating Degree Days 25    
Moisture  
Dew Point 25 °F    
Average Humidity 55    
Maximum Humidity 80    
Minimum Humidity 32    
Precipitation  
Precipitation 0.03 in - - ()
Sea Level Pressure  
Sea Level Pressure 29.91 in    
Wind  
Wind Speed 5 mph (West)    
Max Wind Speed 10 mph    
Max Gust Speed 22 mph    
Visibility 10 miles    
Events Rain    
Averages and records for this station are not official NWS values.
T = Trace of Precipitation, MM = Missing Value Source: NWS Daily Summary

Daily Weather History Graph

Daily Weather History Graph

Search for Another Location

Airport or City:

Trip Planner

Search our weather history database for the weather conditions in past years. The results will help you decide how hot, cold, wet, or windy it might be!

Date:

Astronomy

Jan. 18, 2014 Rise Set
Actual Time 7:15 AM EST 5:15 PM EST
Civil Twilight 6:47 AM EST 5:43 PM EST
Nautical Twilight 6:15 AM EST 6:14 PM EST
Astronomical Twilight 5:44 AM EST 6:45 PM EST
Moon 7:49 PM EST (1/18) 8:18 AM EST (1/18)
Length of Visible Light 10h 56m
Length of Day
10h 00m
Waning Gibbous, 94% of the Moon is Illuminated
Jan 18
Waning Gibbous
Jan 24
Last Quarter
Jan 30
New
Feb 6
First Quarter
Feb 14
Full

Hourly Weather History & Observations

Time (EST) Temp. Windchill Dew Point Humidity Pressure Visibility Wind Dir Wind Speed Gust Speed Precip Events Conditions
12:56 AM 48.9 °F - 37.0 °F 64% 29.83 in 10.0 mi South 3.5 mph - N/A   Overcast
1:56 AM 48.9 °F - 37.9 °F 66% 29.82 in 9.0 mi Variable 3.5 mph - 0.00 in Rain Light Rain
2:56 AM 50.0 °F - 42.1 °F 74% 29.81 in 10.0 mi Variable 3.5 mph - 0.02 in   Overcast
3:56 AM 48.0 °F - 41.0 °F 77% 29.80 in 9.0 mi Calm Calm - 0.00 in Rain Light Rain
4:56 AM 46.9 °F - 41.0 °F 80% 29.78 in 10.0 mi Calm Calm - 0.01 in   Partly Cloudy
5:56 AM 46.0 °F 43.9 °F 39.0 °F 76% 29.78 in 10.0 mi WSW 4.6 mph - N/A   Clear
6:56 AM 42.1 °F 37.1 °F 32.0 °F 67% 29.81 in 10.0 mi WNW 8.1 mph 19.6 mph N/A   Clear
7:32 AM 41.0 °F 37.1 °F 30.9 °F 67% 29.82 in 10.0 mi NW 5.8 mph - N/A   Mostly Cloudy
7:56 AM 41.0 °F 34.7 °F 30.9 °F 67% 29.84 in 10.0 mi WNW 10.4 mph 17.3 mph N/A   Mostly Cloudy
8:56 AM 41.0 °F 35.2 °F 30.0 °F 65% 29.89 in 10.0 mi NW 9.2 mph 21.9 mph N/A   Overcast
9:22 AM 43.0 °F 38.2 °F 30.0 °F 60% 29.90 in 10.0 mi NW 8.1 mph - N/A   Mostly Cloudy
9:31 AM 42.1 °F 37.1 °F 28.9 °F 60% 29.90 in 10.0 mi NNW 8.1 mph - N/A   Mostly Cloudy
9:56 AM 42.1 °F 37.1 °F 28.9 °F 60% 29.92 in 10.0 mi NW 8.1 mph - N/A   Overcast
10:56 AM 45.0 °F 40.1 °F 30.0 °F 56% 29.94 in 10.0 mi WNW 9.2 mph - N/A   Mostly Cloudy
11:56 AM 42.1 °F 37.1 °F 24.1 °F 49% 29.93 in 10.0 mi West 8.1 mph 16.1 mph N/A   Partly Cloudy
12:56 PM 44.1 °F 38.6 °F 18.0 °F 35% 29.91 in 10.0 mi West 10.4 mph 19.6 mph N/A   Scattered Clouds
1:56 PM 43.0 °F 38.2 °F 17.1 °F 35% 29.90 in 10.0 mi West 8.1 mph 20.7 mph N/A   Clear
2:56 PM 43.0 °F 37.7 °F 15.1 °F 32% 29.92 in 10.0 mi West 9.2 mph - N/A   Clear
3:56 PM 41.0 °F 38.0 °F 14.0 °F 33% 29.95 in 10.0 mi Variable 4.6 mph - N/A   Clear
4:56 PM 37.9 °F 32.7 °F 12.9 °F 36% 29.97 in 10.0 mi Variable 6.9 mph - N/A   Clear
5:56 PM 36.0 °F 31.1 °F 12.9 °F 39% 30.00 in 10.0 mi West 5.8 mph - N/A   Clear
6:56 PM 35.1 °F - 14.0 °F 42% 30.02 in 10.0 mi Calm Calm - N/A   Clear
7:56 PM 34.0 °F - 12.9 °F 42% 30.04 in 10.0 mi Calm Calm - N/A   Clear
8:56 PM 32.0 °F - 12.9 °F 45% 30.05 in 10.0 mi Calm Calm - N/A   Clear
9:56 PM 32.0 °F 28.7 °F 12.9 °F 45% 30.05 in 10.0 mi SSW 3.5 mph - N/A   Clear
10:56 PM 30.9 °F 27.5 °F 14.0 °F 50% 30.04 in 10.0 mi Variable 3.5 mph - N/A   Clear
11:56 PM 30.0 °F 26.5 °F 15.1 °F 54% 30.03 in 10.0 mi SSW 3.5 mph - N/A   Clear